| time (UTC) | temp F | wind direction | speed MPH | gust MPH | rain 1hr in | rain 24hr in | rain mn in | humidity % | barometer mb |
| 20260906220820 | 93 | 90 | 4.0 | 8.0 | 0.00 | 0.00 | 0.00 | 47 | 1013.9 |
| 20260906220315 | 93 | 66 | 2.0 | 12.0 | 0.00 | 0.00 | 0.00 | 47 | 1013.8 |
| 20260906215810 | 93 | 96 | 4.0 | 12.0 | 0.00 | 0.00 | 0.00 | 47 | 1013.7 |
| 20260906215327 | 93 | 113 | 4.0 | 9.0 | 0.00 | 0.00 | 0.00 | 47 | 1013.7 |
| 20260906214823 | 93 | 95 | 2.0 | 9.0 | 0.00 | 0.00 | 0.00 | 48 | 1013.8 |
| 20260906214319 | 92 | 121 | 2.0 | 8.0 | 0.00 | 0.00 | 0.00 | 48 | 1013.8 |
| 20260906213835 | 92 | 63 | 3.0 | 10.0 | 0.00 | 0.00 | 0.00 | 47 | 1013.9 |
| 20260906213311 | 93 | 216 | 5.0 | 11.0 | 0.00 | 0.00 | 0.00 | 48 | 1014.0 |
| 20260906212812 | 93 | 82 | 3.0 | 11.0 | 0.00 | 0.00 | 0.00 | 48 | 1014.1 |
| 20260906212328 | 92 | 76 | 3.0 | 11.0 | 0.00 | 0.00 | 0.00 | 50 | 1014.0 |
| 20260906211824 | 91 | 32 | 2.0 | 9.0 | 0.00 | 0.00 | 0.00 | 51 | 1014.2 |
| 20260906211320 | 91 | 113 | 2.0 | 12.0 | 0.00 | 0.00 | 0.00 | 48 | 1014.2 |
| 20260906210818 | 92 | 30 | 5.0 | 13.0 | 0.00 | 0.00 | 0.00 | 48 | 1014.3 |
| 20260906210314 | 95 | 21 | 7.0 | 13.0 | 0.00 | 0.00 | 0.00 | 46 | 1014.3 |
| 20260906205828 | 98 | 60 | 4.0 | 10.0 | 0.00 | 0.00 | 0.00 | 43 | 1014.0 |
| 20260906205328 | 98 | 24 | 2.0 | 3.0 | 0.00 | 0.00 | 0.00 | 42 | 1013.9 |
| 20260906204826 | 98 | 32 | 0.0 | 3.0 | 0.00 | 0.00 | 0.00 | 44 | 1013.9 |
| 20260906204322 | 97 | 32 | 1.0 | 3.0 | 0.00 | 0.00 | 0.00 | 45 | 1014.0 |
| 20260906203817 | 97 | 36 | 0.0 | 2.0 | 0.00 | 0.00 | 0.00 | 41 | 1014.0 |
| 20260906203313 | 97 | 36 | 0.0 | 2.0 | 0.00 | 0.00 | 0.00 | 39 | 1014.0 |
| 20260906202810 | 98 | 36 | 0.0 | 3.0 | 0.00 | 0.00 | 0.00 | 40 | 1014.0 |
| 20260906202326 | 98 | 35 | 0.0 | 5.0 | 0.00 | 0.00 | 0.00 | 38 | 1014.0 |
| 20260906201842 | 99 | 355 | 3.0 | 5.0 | 0.00 | 0.00 | 0.00 | 38 | 1014.0 |
| 20260906201317 | 100 | 82 | 1.0 | 5.0 | 0.00 | 0.00 | 0.00 | 36 | 1013.9 |
| 20260906200818 | 100 | 333 | 1.0 | 3.0 | 0.00 | 0.00 | 0.00 | 41 | 1014.0 |
| 20260906200312 | 99 | 25 | 1.0 | 3.0 | 0.00 | 0.00 | 0.00 | 38 | 1014.1 |
| 20260906195828 | 99 | 31 | 1.0 | 5.0 | 0.00 | 0.00 | 0.00 | 39 | 1014.0 |
| 20260906195325 | 99 | 214 | 2.0 | 5.0 | 0.00 | 0.00 | 0.00 | 37 | 1014.2 |
| 20260906194821 | 100 | 123 | 2.0 | 8.0 | 0.00 | 0.00 | 0.00 | 37 | 1014.3 |
| 20260906194317 | 101 | 35 | 2.0 | 8.0 | 0.00 | 0.00 | 0.00 | 38 | 1014.5 |
| 20260906193814 | 100 | 334 | 1.0 | 5.0 | 0.00 | 0.00 | 0.00 | 38 | 1014.4 |
| 20260906193314 | 99 | 22 | 2.0 | 4.0 | 0.00 | 0.00 | 0.00 | 37 | 1014.5 |
| 20260906192811 | 99 | 24 | 2.0 | 4.0 | 0.00 | 0.00 | 0.00 | 40 | 1014.6 |
| 20260906192327 | 100 | 87 | 1.0 | 5.0 | 0.00 | 0.00 | 0.00 | 40 | 1014.7 |
| 20260906191824 | 100 | 322 | 1.0 | 6.0 | 0.00 | 0.00 | 0.00 | 40 | 1014.7 |
| 20260906191320 | 99 | 23 | 2.0 | 6.0 | 0.00 | 0.00 | 0.00 | 41 | 1015.0 |
| 20260906190816 | 99 | 26 | 3.0 | 6.0 | 0.00 | 0.00 | 0.00 | 41 | 1014.9 |
| 20260906190333 | 99 | 35 | 1.0 | 6.0 | 0.00 | 0.00 | 0.00 | 40 | 1014.8 |
| 20260906185827 | 98 | 9 | 4.0 | 6.0 | 0.00 | 0.00 | 0.00 | 43 | 1014.8 |
| 20260906185327 | 98 | 136 | 1.0 | 2.0 | 0.00 | 0.00 | 0.00 | 43 | 1014.8 |
| 20260906184823 | 96 | 89 | 1.0 | 2.0 | 0.00 | 0.00 | 0.00 | 44 | 1015.0 |
| 20260906184321 | 94 | 28 | 0.0 | 3.0 | 0.00 | 0.00 | 0.00 | 45 | 1015.0 |
| 20260906183816 | 95 | 28 | 1.0 | 6.0 | 0.00 | 0.00 | 0.00 | 46 | 1015.2 |
| 20260906183333 | 98 | 32 | 3.0 | 6.0 | 0.00 | 0.00 | 0.00 | 40 | 1015.2 |
| 20260906182828 | 99 | 103 | 2.0 | 5.0 | 0.00 | 0.00 | 0.00 | 40 | 1015.1 |
| 20260906182344 | 99 | 28 | 2.0 | 4.0 | 0.00 | 0.00 | 0.00 | 41 | 1015.3 |
| 20260906181820 | 99 | 109 | 1.0 | 4.0 | 0.00 | 0.00 | 0.00 | 41 | 1015.4 |
| 20260906181319 | 99 | 5 | 2.0 | 4.0 | 0.00 | 0.00 | 0.00 | 41 | 1015.4 |
| 20260906180817 | 98 | 32 | 2.0 | 3.0 | 0.00 | 0.00 | 0.00 | 41 | 1015.6 |
| 20260906180314 | 98 | 30 | 2.0 | 5.0 | 0.00 | 0.00 | 0.00 | 43 | 1015.6 |
| 20260906175827 | 97 | 106 | 2.0 | 8.0 | 0.00 | 0.00 | 0.00 | 42 | 1015.8 |
| 20260906175324 | 98 | 101 | 2.0 | 8.0 | 0.00 | 0.00 | 0.00 | 44 | 1015.9 |
| 20260906174820 | 99 | 41 | 1.0 | 8.0 | 0.00 | 0.00 | 0.00 | 43 | 1016.0 |
| 20260906174316 | 97 | 126 | 2.0 | 8.0 | 0.00 | 0.00 | 0.00 | 45 | 1016.0 |
| 20260906173817 | 97 | 102 | 2.0 | 4.0 | 0.00 | 0.00 | 0.00 | 47 | 1016.2 |
| 20260906173312 | 97 | 159 | 1.0 | 6.0 | 0.00 | 0.00 | 0.00 | 45 | 1016.3 |
| 20260906172828 | 96 | 95 | 3.0 | 6.0 | 0.00 | 0.00 | 0.00 | 45 | 1016.3 |
| 20260906172323 | 97 | 120 | 1.0 | 6.0 | 0.00 | 0.00 | 0.00 | 47 | 1016.4 |
| 20260906171821 | 97 | 250 | 1.0 | 8.0 | 0.00 | 0.00 | 0.00 | 46 | 1016.5 |
| 20260906171317 | 97 | 95 | 2.0 | 8.0 | 0.00 | 0.00 | 0.00 | 46 | 1016.7 |
| 20260906170832 | 96 | 94 | 1.0 | 3.0 | 0.00 | 0.00 | 0.00 | 48 | 1016.7 |
| 20260906170328 | 96 | 92 | 0.0 | 3.0 | 0.00 | 0.00 | 0.00 | 47 | 1016.7 |
| 20260906165823 | 95 | 123 | 2.0 | 3.0 | 0.00 | 0.00 | 0.00 | 51 | 1016.8 |
| 20260906165324 | 94 | 148 | 2.0 | 3.0 | 0.00 | 0.00 | 0.00 | 49 | 1016.9 |
| 20260906164820 | 95 | 88 | 1.0 | 3.0 | 0.00 | 0.00 | 0.00 | 47 | 1016.9 |
| 20260906164315 | 95 | 82 | 2.0 | 3.0 | 0.00 | 0.00 | 0.00 | 51 | 1017.0 |
| 20260906163812 | 95 | 143 | 1.0 | 4.0 | 0.00 | 0.00 | 0.00 | 49 | 1017.1 |
| 20260906163327 | 94 | 110 | 2.0 | 3.0 | 0.00 | 0.00 | 0.00 | 49 | 1017.0 |
| 20260906162823 | 94 | 70 | 0.0 | 6.0 | 0.00 | 0.00 | 0.00 | 50 | 1017.1 |
| 20260906162321 | 94 | 91 | 1.0 | 6.0 | 0.00 | 0.00 | 0.00 | 52 | 1017.1 |
| 20260906161821 | 94 | 80 | 0.0 | 2.0 | 0.00 | 0.00 | 0.00 | 50 | 1017.1 |
| 20260906161318 | 94 | 32 | 1.0 | 2.0 | 0.00 | 0.00 | 0.00 | 54 | 1017.1 |
| 20260906160813 | 93 | 18 | 0.0 | 4.0 | 0.00 | 0.00 | 0.00 | 55 | 1017.2 |
| 20260906160310 | 93 | 100 | 2.0 | 4.0 | 0.00 | 0.00 | 0.00 | 53 | 1017.2 |
| 20260906155826 | 93 | 150 | 2.0 | 3.0 | 0.00 | 0.00 | 0.00 | 52 | 1017.1 |
| 20260906155323 | 92 | 148 | 1.0 | 2.0 | 0.00 | 0.00 | 0.00 | 52 | 1017.1 |
| 20260906154819 | 91 | 122 | 1.0 | 3.0 | 0.00 | 0.00 | 0.00 | 56 | 1017.2 |
| 20260906154319 | 91 | 150 | 1.0 | 4.0 | 0.00 | 0.00 | 0.00 | 54 | 1017.1 |
| 20260906153815 | 91 | 142 | 1.0 | 3.0 | 0.00 | 0.00 | 0.00 | 57 | 1017.1 |
| 20260906153330 | 91 | 103 | 0.0 | 2.0 | 0.00 | 0.00 | 0.00 | 58 | 1017.1 |
| 20260906152846 | 90 | 123 | 1.0 | 2.0 | 0.00 | 0.00 | 0.00 | 54 | 1017.0 |
| 20260906152322 | 90 | 88 | 0.0 | 2.0 | 0.00 | 0.00 | 0.00 | 56 | 1017.0 |
| 20260906151818 | 90 | 151 | 0.0 | 2.0 | 0.00 | 0.00 | 0.00 | 56 | 1017.0 |
| 20260906151314 | 88 | 152 | 1.0 | 2.0 | 0.00 | 0.00 | 0.00 | 57 | 1016.9 |
| 20260906150811 | 88 | 165 | 1.0 | 2.0 | 0.00 | 0.00 | 0.00 | 57 | 1017.0 |
| 20260906150327 | 89 | 123 | 0.0 | 2.0 | 0.00 | 0.00 | 0.00 | 57 | 1017.0 |
| 20260906145827 | 88 | 123 | 0.0 | 2.0 | 0.00 | 0.00 | 0.00 | 57 | 1016.9 |
| 20260906145322 | 87 | 123 | 1.0 | 2.0 | 0.00 | 0.00 | 0.00 | 57 | 1016.9 |
| 20260906144819 | 87 | 252 | 0.0 | 2.0 | 0.00 | 0.00 | 0.00 | 61 | 1016.9 |
| 20260906144335 | 86 | 234 | 0.0 | 2.0 | 0.00 | 0.00 | 0.00 | 61 | 1016.9 |
| 20260906143829 | 86 | 234 | 1.0 | 2.0 | 0.00 | 0.00 | 0.00 | 61 | 1016.9 |
| 20260906143345 | 86 | 221 | 1.0 | 2.0 | 0.00 | 0.00 | 0.00 | 60 | 1016.9 |
| 20260906142840 | 85 | 219 | 1.0 | 2.0 | 0.00 | 0.00 | 0.00 | 61 | 1017.0 |
| 20260906142315 | 85 | 101 | 0.0 | 2.0 | 0.00 | 0.00 | 0.00 | 64 | 1016.9 |
| 20260906141811 | 85 | 101 | 0.0 | 2.0 | 0.00 | 0.00 | 0.00 | 65 | 1017.0 |
| 20260906141347 | 84 | 101 | 0.0 | 2.0 | 0.00 | 0.00 | 0.00 | 65 | 1017.0 |
| 20260906140843 | 84 | 101 | 1.0 | 3.0 | 0.00 | 0.00 | 0.00 | 66 | 1016.9 |
| 20260906140323 | 83 | 78 | 1.0 | 3.0 | 0.00 | 0.00 | 0.00 | 68 | 1016.9 |
| 20260906135817 | 82 | 107 | 1.0 | 2.0 | 0.00 | 0.00 | 0.00 | 69 | 1016.8 |
| 20260906135313 | 82 | 107 | 0.0 | 2.0 | 0.00 | 0.00 | 0.00 | 71 | 1016.8 |
| 20260906134849 | 81 | 107 | 0.0 | 2.0 | 0.00 | 0.00 | 0.00 | 73 | 1016.8 |
| 20260906134325 | 81 | 107 | 0.0 | 2.0 | 0.00 | 0.00 | 0.00 | 75 | 1016.7 |
| 20260906133821 | 80 | 107 | 1.0 | 2.0 | 0.00 | 0.00 | 0.00 | 75 | 1016.7 |
| 20260906133317 | 79 | 109 | 0.0 | 2.0 | 0.00 | 0.00 | 0.00 | 76 | 1016.8 |
| 20260906132834 | 78 | 109 | 1.0 | 2.0 | 0.00 | 0.00 | 0.00 | 77 | 1016.8 |
| 20260906132313 | 78 | 128 | 1.0 | 2.0 | 0.00 | 0.00 | 0.00 | 76 | 1016.7 |
| 20260906131809 | 77 | 128 | 0.0 | 2.0 | 0.00 | 0.00 | 0.00 | 77 | 1016.7 |
| 20260906131326 | 76 | 128 | 0.0 | 2.0 | 0.00 | 0.00 | 0.00 | 79 | 1016.6 |
| 20260906130843 | 75 | 128 | 0.0 | 2.0 | 0.00 | 0.00 | 0.00 | 84 | 1016.6 |
| 20260906130316 | 75 | 128 | 0.0 | 2.0 | 0.00 | 0.00 | 0.00 | 85 | 1016.6 |
| 20260906125811 | 74 | 128 | 0.0 | 2.0 | 0.00 | 0.00 | 0.00 | 86 | 1016.6 |
| 20260906125328 | 73 | 128 | 0.0 | 2.0 | 0.00 | 0.00 | 0.00 | 87 | 1016.6 |
| 20260906124825 | 73 | 128 | 0.0 | 1.0 | 0.00 | 0.00 | 0.00 | 87 | 1016.5 |
| 20260906124321 | 72 | 128 | 0.0 | 2.0 | 0.00 | 0.00 | 0.00 | 86 | 1016.5 |
| 20260906123327 | 70 | 128 | 0.0 | 0.0 | 0.00 | 0.00 | 0.00 | 89 | 1016.2 |
| 20260906122823 | 70 | 128 | 0.0 | 0.0 | 0.00 | 0.00 | 0.00 | 89 | 1016.1 |
| 20260906122319 | 70 | 128 | 0.0 | 0.0 | 0.00 | 0.00 | 0.00 | 89 | 1016.0 |
| 20260906121815 | 69 | 128 | 0.0 | 0.0 | 0.00 | 0.00 | 0.00 | 90 | 1016.0 |
| 20260906121316 | 69 | 128 | 0.0 | 0.0 | 0.00 | 0.00 | 0.00 | 90 | 1015.9 |
| 20260906120813 | 69 | 128 | 0.0 | 0.0 | 0.00 | 0.00 | 0.00 | 90 | 1015.9 |
| 20260906120309 | 69 | 128 | 0.0 | 0.0 | 0.00 | 0.00 | 0.00 | 90 | 1015.8 |
| 20260906115823 | 69 | 128 | 0.0 | 0.0 | 0.00 | 0.00 | 0.00 | 89 | 1015.7 |
| 20260906115318 | 69 | 128 | 0.0 | 0.0 | 0.00 | 0.00 | 0.00 | 90 | 1015.6 |
| 20260906114815 | 69 | 128 | 0.0 | 0.0 | 0.00 | 0.00 | 0.00 | 89 | 1015.6 |
| 20260906114310 | 69 | 128 | 0.0 | 0.0 | 0.00 | 0.00 | 0.00 | 89 | 1015.5 |
| 20260906113811 | 69 | 128 | 0.0 | 0.0 | 0.00 | 0.00 | 0.00 | 89 | 1015.4 |
| 20260906113327 | 69 | 128 | 0.0 | 0.0 | 0.00 | 0.00 | 0.00 | 89 | 1015.5 |
| 20260906112824 | 69 | 128 | 0.0 | 0.0 | 0.00 | 0.00 | 0.00 | 89 | 1015.4 |
| 20260906112320 | 69 | 128 | 0.0 | 0.0 | 0.00 | 0.00 | 0.00 | 89 | 1015.5 |
| 20260906111816 | 69 | 128 | 0.0 | 0.0 | 0.00 | 0.00 | 0.00 | 89 | 1015.5 |
| 20260906111311 | 69 | 128 | 0.0 | 0.0 | 0.00 | 0.00 | 0.00 | 89 | 1015.4 |
| 20260906110818 | 69 | 128 | 0.0 | 0.0 | 0.00 | 0.00 | 0.00 | 88 | 1015.4 |
| 20260905233313 | 94 | 26 | 0.0 | 3.0 | 0.00 | 0.00 | 0.00 | 46 | 1013.7 |
| 20260905232810 | 94 | 27 | 1.0 | 3.0 | 0.00 | 0.00 | 0.00 | 44 | 1013.6 |
| 20260905232328 | 94 | 15 | 1.0 | 5.0 | 0.00 | 0.00 | 0.00 | 45 | 1013.5 |
| 20260905231844 | 95 | 22 | 3.0 | 5.0 | 0.00 | 0.00 | 0.00 | 42 | 1013.5 |
| 20260905231320 | 97 | 11 | 2.0 | 5.0 | 0.00 | 0.00 | 0.00 | 45 | 1013.5 |
| 20260905230819 | 98 | 202 | 0.0 | 3.0 | 0.00 | 0.00 | 0.00 | 36 | 1013.4 |
| 20260905230315 | 98 | 232 | 1.0 | 3.0 | 0.00 | 0.00 | 0.00 | 37 | 1013.4 |
| 20260905225811 | 98 | 199 | 1.0 | 3.0 | 0.00 | 0.00 | 0.00 | 35 | 1013.4 |
| 20260905225328 | 98 | 120 | 1.0 | 3.0 | 0.00 | 0.00 | 0.00 | 37 | 1013.4 |
| 20260905224825 | 98 | 95 | 1.0 | 3.0 | 0.00 | 0.00 | 0.00 | 37 | 1013.3 |
| 20260905224322 | 98 | 82 | 0.0 | 2.0 | 0.00 | 0.00 | 0.00 | 37 | 1013.4 |
| 20260905223818 | 99 | 82 | 0.0 | 2.0 | 0.00 | 0.00 | 0.00 | 38 | 1013.4 |
| 20260905223318 | 99 | 118 | 0.0 | 3.0 | 0.00 | 0.00 | 0.00 | 36 | 1013.4 |
| 20260905222814 | 99 | 124 | 1.0 | 3.0 | 0.00 | 0.00 | 0.00 | 36 | 1013.3 |
| 20260905222311 | 99 | 143 | 0.0 | 2.0 | 0.00 | 0.00 | 0.00 | 36 | 1013.3 |
| 20260905221828 | 99 | 143 | 0.0 | 2.0 | 0.00 | 0.00 | 0.00 | 36 | 1013.4 |
| 20260905221324 | 99 | 142 | 0.0 | 3.0 | 0.00 | 0.00 | 0.00 | 35 | 1013.5 |